Cullman, AL

1:03 PM CDT on May 26, 2017 (GMT -0500)
Cullman

Weather History for K3A1 - October, 2011

Change the Weather History Date:

Sunday, October 9, 2011

  Actual Average (KHSV) Record (KHSV)
Temperature  
Mean Temperature 64 °F -  
Max Temperature 72 °F 74 °F 92 °F (1939)
Min Temperature 57 °F 50 °F 29 °F (2000)
Growing Degree Days 14 (Base 50)    
Moisture  
Dew Point 54 °F    
Average Humidity 69    
Maximum Humidity 100    
Minimum Humidity 53    
Precipitation  
Precipitation 0.00 in - - ()
Sea Level Pressure  
Sea Level Pressure 30.26 in    
Wind  
Wind Speed 6 mph (East)    
Max Wind Speed 13 mph    
Max Gust Speed 21 mph    
Visibility 10 miles    
Events      
Averages and records for this station are not official NWS values.
T = Trace of Precipitation, MM = Missing Value Source: NWS Daily Summary

Daily Weather History Graph

Daily Weather History Graph

Search for Another Location

Airport or City:

Trip Planner

Search our weather history database for the weather conditions in past years. The results will help you decide how hot, cold, wet, or windy it might be!

Date:

Astronomy

Oct. 09, 2011 Rise Set
Actual Time 6:47 AM CDT 6:21 PM CDT
Civil Twilight 6:22 AM CDT 6:46 PM CDT
Nautical Twilight 5:53 AM CDT 7:15 PM CDT
Astronomical Twilight 5:24 AM CDT 7:44 PM CDT
Moon 4:55 PM CDT (10/9) 4:36 AM CDT (10/9)
Length of Visible Light 12h 23m
Length of Day
11h 33m
Waxing Gibbous, 95% of the Moon is Illuminated
Oct 9
Waxing Gibbous
Oct 11
Full
Oct 19
Last Quarter
Oct 26
New
Nov 2
First Quarter

Hourly Weather History & Observations

Time (CDT) Temp. Dew Point Humidity Pressure Visibility Wind Dir Wind Speed Gust Speed Precip Events Conditions
12:15 AM 63.0 °F 58.5 °F 85% 30.30 in 10.0 mi East 3.5 mph - N/A   Clear
12:35 AM 61.2 °F 56.7 °F 85% 30.30 in 10.0 mi East 4.6 mph - N/A   Clear
12:55 AM 61.0 °F 56.5 °F 85% 30.29 in 10.0 mi East 4.6 mph - N/A   Clear
1:15 AM 61.0 °F 56.3 °F 85% 30.29 in 10.0 mi East 4.6 mph - N/A   Clear
1:35 AM 61.0 °F 56.3 °F 85% 30.29 in 10.0 mi ESE 4.6 mph - N/A   Clear
2:15 AM 60.8 °F 55.8 °F 83% 30.28 in 10.0 mi ESE 6.9 mph - N/A   Clear
2:35 AM 61.0 °F 55.4 °F 82% 30.28 in 10.0 mi East 4.6 mph - N/A   Clear
2:55 AM 60.3 °F 55.0 °F 83% 30.27 in 10.0 mi East 3.5 mph - N/A   Clear
3:15 AM 59.5 °F 54.7 °F 84% 30.27 in 10.0 mi ESE 4.6 mph - N/A   Clear
3:35 AM 59.0 °F 54.1 °F 84% 30.28 in 10.0 mi ESE 3.5 mph - N/A   Clear
3:55 AM 58.5 °F 53.8 °F 84% 30.28 in 10.0 mi ESE 3.5 mph - N/A   Clear
4:15 AM 58.5 °F 53.6 °F 84% 30.27 in 10.0 mi East 3.5 mph - N/A   Clear
4:35 AM 58.5 °F 53.6 °F 84% 30.28 in 10.0 mi East 4.6 mph - N/A   Clear
4:55 AM 58.5 °F 50.0 °F 73% 30.28 in 10.0 mi East 4.6 mph - N/A   Clear
5:15 AM 58.5 °F 47.3 °F 66% 30.28 in 10.0 mi East 5.8 mph - N/A   Clear
5:35 AM 58.6 °F 46.6 °F 64% 30.29 in 10.0 mi East 5.8 mph - N/A   Clear
6:15 AM 58.8 °F 46.0 °F 63% 30.29 in 10.0 mi East 6.9 mph - N/A   Clear
6:35 AM 59.0 °F 46.0 °F 62% 30.30 in 10.0 mi East 4.6 mph - N/A   Clear
7:15 AM 58.5 °F 46.2 °F 64% 30.31 in 10.0 mi East 5.8 mph - N/A   Clear
7:35 AM 58.6 °F 46.6 °F 64% 30.31 in 10.0 mi East 5.8 mph - N/A   Clear
7:55 AM 59.7 °F 46.8 °F 62% 30.31 in 10.0 mi East 6.9 mph - N/A   Clear
8:15 AM 62.4 °F 47.8 °F 59% 30.31 in 10.0 mi ESE 8.1 mph - N/A   Clear
8:35 AM 65.1 °F 49.5 °F 57% 30.31 in 10.0 mi East 8.1 mph 19.6 mph N/A   Clear
8:55 AM 66.2 °F 50.0 °F 56% 30.31 in 10.0 mi East 6.9 mph 16.1 mph N/A   Clear
9:15 AM 66.2 °F 49.6 °F 55% 30.32 in 10.0 mi East 12.7 mph 18.4 mph N/A   Clear
9:35 AM 66.2 °F 50.0 °F 56% 30.32 in 10.0 mi ESE 9.2 mph 17.3 mph N/A   Clear
9:55 AM 66.2 °F 52.2 °F 61% 30.32 in 10.0 mi ESE 8.1 mph - N/A   Clear
10:15 AM 66.2 °F 52.9 °F 62% 30.32 in 10.0 mi East 10.4 mph - N/A   Clear
10:35 AM 66.2 °F 52.7 °F 62% 30.32 in 10.0 mi ESE 8.1 mph 16.1 mph N/A   Clear
10:55 AM 66.4 °F 52.3 °F 61% 30.31 in 10.0 mi ESE 8.1 mph 17.3 mph N/A   Clear
11:15 AM 66.4 °F 52.3 °F 61% 30.30 in 10.0 mi ESE 11.5 mph 18.4 mph N/A   Clear
11:35 AM 66.2 °F 52.5 °F 61% 30.30 in 10.0 mi East 9.2 mph - N/A   Clear
11:55 AM 67.6 °F 53.6 °F 61% 30.29 in 10.0 mi ESE 6.9 mph - N/A   Clear
12:15 PM 69.6 °F 54.9 °F 59% 30.28 in 10.0 mi ESE 8.1 mph - N/A   Clear
12:35 PM 71.8 °F 55.0 °F 55% 30.27 in 10.0 mi East 11.5 mph 19.6 mph N/A   Clear
12:55 PM 72.7 °F 54.5 °F 53% 30.26 in 10.0 mi ESE 12.7 mph 20.7 mph N/A   Clear
1:15 PM 71.1 °F 54.0 °F 55% 30.24 in 10.0 mi East 6.9 mph - N/A   Clear
1:35 PM 72.9 °F 55.0 °F 53% 30.24 in 10.0 mi ESE 9.2 mph - N/A   Clear
1:55 PM 71.6 °F 53.8 °F 53% 30.23 in 10.0 mi East 8.1 mph - N/A   Clear
2:15 PM 71.1 °F 53.4 °F 54% 30.23 in 10.0 mi ESE 5.8 mph - N/A   Scattered Clouds
2:35 PM 71.2 °F 54.1 °F 55% 30.22 in 10.0 mi East 8.1 mph - N/A   Clear
3:15 PM 71.6 °F 54.9 °F 55% 30.22 in 10.0 mi East 4.6 mph - N/A   Scattered Clouds
3:35 PM 71.1 °F 55.4 °F 58% 30.20 in 10.0 mi ENE 4.6 mph - N/A   Clear
3:55 PM 71.1 °F 54.7 °F 56% 30.20 in 10.0 mi ENE 8.1 mph - N/A   Clear
4:15 PM 71.1 °F 55.2 °F 57% 30.19 in 10.0 mi ENE 8.1 mph - N/A   Clear
4:35 PM 71.1 °F 55.8 °F 58% 30.19 in 10.0 mi ENE 5.8 mph - N/A   Clear
4:55 PM 71.1 °F 56.1 °F 59% 30.20 in 10.0 mi ENE 5.8 mph - N/A   Clear
5:15 PM 71.1 °F 56.1 °F 59% 30.20 in 10.0 mi ENE 4.6 mph - N/A   Clear
5:35 PM 69.1 °F 55.0 °F 61% 30.19 in 10.0 mi ENE 4.6 mph - N/A   Clear
6:15 PM 67.5 °F 54.1 °F 62% 30.19 in 10.0 mi ENE 4.6 mph - N/A   Clear
6:35 PM 65.7 °F 54.1 °F 66% 30.19 in 10.0 mi Calm Calm - N/A   Clear
6:55 PM 60.6 °F 55.2 °F 82% 30.19 in 10.0 mi Calm Calm - N/A   Clear
7:55 PM 57.0 °F 57.2 °F 100% 30.20 in 10.0 mi ENE 3.5 mph - N/A   Scattered Clouds
8:15 PM 57.6 °F 57.7 °F 100% 30.20 in 10.0 mi ENE 4.6 mph - N/A   Clear
8:35 PM 60.1 °F 59.5 °F 98% 30.20 in 10.0 mi ENE 3.5 mph - N/A   Clear
9:15 PM 65.5 °F 62.6 °F 90% 30.20 in 10.0 mi East 4.6 mph - N/A   Clear
9:35 PM 66.2 °F 62.6 °F 88% 30.20 in 10.0 mi East 5.8 mph - N/A   Light Drizzle
9:55 PM 66.2 °F 62.1 °F 86% 30.20 in 10.0 mi East 3.5 mph - N/A   Scattered Clouds
10:15 PM 66.2 °F 61.9 °F 86% 30.20 in 10.0 mi East 4.6 mph - N/A   Clear
10:35 PM 66.2 °F 61.9 °F 86% 30.20 in 10.0 mi East 5.8 mph - N/A   Clear
10:55 PM 66.2 °F 61.7 °F 85% 30.19 in 10.0 mi East 5.8 mph - N/A   Clear
11:15 PM 66.2 °F 61.7 °F 85% 30.19 in 10.0 mi East 6.9 mph - N/A   Clear
11:35 PM 66.2 °F 61.7 °F 85% 30.18 in 10.0 mi East 5.8 mph - N/A   Clear
11:55 PM 66.2 °F 61.9 °F 86% 30.18 in 10.0 mi East 3.5 mph - N/A   Clear